{"data":{"norad_id":54012,"intl_designator":"2022-125BA","name":"STARLINK-5126","alt_names":[],"object_type":"PAYLOAD","status":"ACTIVE","operator":null,"country":"US","launch_date":"2022-10-05","launch_site_code":"AFWTR","launch_vehicle":null,"mission":null,"orbit_class":"UNKNOWN","rcs_meters":null,"size_class":null,"mass_kg":null,"dimensions":null,"purposes":["comms"],"wikipedia_slug":null,"has_3d_model":false,"image_url":null,"decayed_at":null,"tle_current":{"epoch":"2026-05-25T04:33:54.269280Z","epoch_age_seconds":54697,"freshness":"FRESH","line1":"1 54012U 22125BA  26145.19021145  .00000746  00000+0  64941-4 0  9999","line2":"2 54012  53.2149 220.5725 0001183  86.1920 273.9207 15.08839376201159","mean_motion":15.08839376,"eccentricity":0.0001183,"inclination_deg":53.2149,"raan_deg":220.5725,"arg_perigee_deg":86.192,"mean_anomaly_deg":273.9207,"bstar":6.4941e-5,"rev_number":20115,"period_min":95.437594147198,"perigee_km":538.92691080747,"apogee_km":540.56368175878,"semimajor_km":6917.8822962831,"source":"CELESTRAK","updated_at":"2026-05-25T13:38:17.626613Z"}}}